Weather History for KABY - January, 2013

Change the Weather History Date:

Friday, January 25, 2013

  Actual Average Record
Temperature  
Mean Temperature 57 °F 50 °F  
Max Temperature 68 °F 61 °F 81 °F (1943)
Min Temperature 45 °F 38 °F 17 °F (1963)
Degree Days  
Heating Degree Days 8 15  
Month to date heating degree days 228 399  
Since 1 July heating degree days 880 1112  
Cooling Degree Days 0 0  
Month to date cooling degree days 25 0  
Year to date cooling degree days 25 0  
Growing Degree Days 5 (Base 50)    
Moisture  
Dew Point 41 °F    
Average Humidity 56    
Maximum Humidity 76    
Minimum Humidity 35    
Precipitation  
Precipitation 0.00 in - 0.91 in (2011)
Month to date precipitation 0.42  
Year to date precipitation 0.42  
Sea Level Pressure  
Sea Level Pressure 30.29 in    
Wind  
Wind Speed 7 mph (SE)    
Max Wind Speed 15 mph    
Max Gust Speed 17 mph    
Visibility 9 miles    
Events      
T = Trace of Precipitation, MM = Missing Value Source: NWS Daily Summary

Daily Weather History Graph

Daily Weather History Graph

Search for Another Location

Airport or City:

Trip Planner

Search our weather history database for the weather conditions in past years. The results will help you decide how hot, cold, wet, or windy it might be!

Date:

Astronomy

Jan. 25, 2013 Rise Set
Actual Time 7:33 AM EST 6:05 PM EST
Civil Twilight 7:07 AM EST 6:31 PM EST
Nautical Twilight 6:38 AM EST 7:00 PM EST
Astronomical Twilight 6:09 AM EST 7:29 PM EST
Moon 5:01 PM EST (1/25) 6:11 AM EST (1/25)
Length of Visible Light 11h 23m
Length of Day
10h 32m
Waxing Gibbous, 98% of the Moon is Illuminated
Jan 25
Waxing Gibbous
Jan 26
Full
Feb 3
Last Quarter
Feb 10
New
Feb 17
First Quarter

Hourly Weather History & Observations

Time (EST) Temp. Windchill Dew Point Humidity Pressure Visibility Wind Dir Wind Speed Gust Speed Precip Events Conditions
12:53 AM 53.1 °F - 33.1 °F 47% 30.33 in 10.0 mi ENE 9.2 mph - N/A   Overcast
1:53 AM 52.0 °F - 26.1 °F 37% 30.35 in 10.0 mi ENE 9.2 mph - N/A   Overcast
2:53 AM 51.1 °F - 24.1 °F 35% 30.35 in 10.0 mi ENE 8.1 mph - N/A   Overcast
3:53 AM 50.0 °F - 26.1 °F 39% 30.33 in 10.0 mi East 10.4 mph - N/A   Overcast
4:53 AM 48.9 °F - 37.9 °F 66% 30.32 in 9.0 mi ESE 6.9 mph - N/A   Scattered Clouds
5:53 AM 48.0 °F - 39.9 °F 74% 30.35 in 9.0 mi ENE 8.1 mph - N/A   Overcast
6:53 AM 46.0 °F 43.1 °F 39.0 °F 76% 30.35 in 9.0 mi East 5.8 mph - N/A   Mostly Cloudy
7:53 AM 45.0 °F 41.2 °F 37.9 °F 76% 30.37 in 9.0 mi ENE 6.9 mph - N/A   Mostly Cloudy
8:10 AM 44.6 °F 40.7 °F 37.4 °F 76% 30.36 in 9.0 mi East 6.9 mph - N/A   Mostly Cloudy
8:35 AM 46.4 °F 43.5 °F 37.4 °F 71% 30.36 in 9.0 mi East 5.8 mph - N/A   Overcast
8:53 AM 46.0 °F 43.1 °F 37.9 °F 73% 30.38 in 9.0 mi ENE 5.8 mph - N/A   Overcast
9:04 AM 46.4 °F 42.9 °F 39.2 °F 76% 30.38 in 9.0 mi ENE 6.9 mph - N/A   Overcast
9:31 AM 48.2 °F - 39.2 °F 71% 30.38 in 8.0 mi East 8.1 mph - N/A   Partly Cloudy
9:53 AM 48.9 °F - 39.0 °F 69% 30.38 in 9.0 mi ESE 8.1 mph - N/A   Clear
10:53 AM 53.1 °F - 41.0 °F 64% 30.35 in 9.0 mi SSE 6.9 mph - N/A   Clear
11:53 AM 57.9 °F - 44.1 °F 60% 30.30 in 7.0 mi SSE 8.1 mph - N/A   Clear
12:53 PM 61.0 °F - 45.0 °F 56% 30.27 in 9.0 mi Calm Calm - N/A   Scattered Clouds
1:53 PM 64.0 °F - 46.9 °F 54% 30.24 in 9.0 mi SSW 4.6 mph - N/A   Clear
2:53 PM 64.9 °F - 48.0 °F 54% 30.22 in 6.0 mi WSW 4.6 mph - N/A   Haze
3:53 PM 66.9 °F - 48.9 °F 52% 30.20 in 9.0 mi SW 8.1 mph - N/A   Scattered Clouds
4:53 PM 66.9 °F - 48.9 °F 52% 30.18 in 9.0 mi SW 9.2 mph - N/A   Clear
5:53 PM 64.9 °F - 48.0 °F 54% 30.17 in 10.0 mi SW 3.5 mph - N/A   Clear
6:53 PM 63.0 °F - 48.0 °F 58% 30.18 in 10.0 mi SW 4.6 mph - N/A   Clear
7:53 PM 59.0 °F - 46.9 °F 64% 30.19 in 10.0 mi SW 6.9 mph - N/A   Clear
8:53 PM 62.1 °F - 46.0 °F 56% 30.19 in 10.0 mi SW 8.1 mph - N/A   Clear
9:53 PM 61.0 °F - 46.0 °F 58% 30.20 in 10.0 mi SW 6.9 mph - N/A   Clear
10:53 PM 57.0 °F - 46.9 °F 69% 30.20 in 10.0 mi SW 5.8 mph - N/A   Clear
11:53 PM 57.9 °F - 50.0 °F 75% 30.20 in 10.0 mi SW 5.8 mph - N/A   Clear